Terminal Aerodrome Forecast
Issued by NWS

Home | Current Version | Previous Version | Text Only | Print | Product List | Glossary On
Versions: 1 2 3 4 5 6 7 8 9 10 11 12 13 14 15 16 17 18 19 20 21 22 23 24 25 26 27 28 29 30 31
000
FTUS46 KOTX 272335
TAFSFF
TAF
KSFF 272335Z 2800/2824 24010KT P6SM SCT200
     FM280300 VRB03KT P6SM SCT200
     FM280700 03003KT 4SM FU HZ SCT120 BKN150 OVC200
     FM281900 23009KT P6SM SCT100 BKN120 OVC150=

USA.gov is the U.S. government's official web portal to all federal, state and local government web resources and services.